Weather History for Shreveport, LA

Change the Weather History Date:

Monday, January 27, 2014

  Actual Average Record
Temperature  
Mean Temperature 43 °F 47 °F  
Max Temperature 53 °F 58 °F 82 °F (1975)
Min Temperature 32 °F 37 °F 13 °F (1897)
Degree Days  
Heating Degree Days 22 18  
Month to date heating degree days 559 503  
Since 1 July heating degree days 1529 1405  
Cooling Degree Days 0 0  
Month to date cooling degree days 0 0  
Year to date cooling degree days 0 0  
Moisture  
Dew Point 18 °F    
Average Humidity 54    
Maximum Humidity 89    
Minimum Humidity 19    
Precipitation  
Precipitation 0.00 in 0.15 in 1.76 in (1949)
Month to date precipitation 0.82 3.58  
Year to date precipitation 0.82 3.58  
Snow  
Snow 0.00 in - - ()
Month to date snowfall T  
Since 1 July snowfall T  
Snow Depth 0.00 in    
Sea Level Pressure  
Sea Level Pressure 30.09 in    
Wind  
Wind Speed 13 mph (NNE)    
Max Wind Speed 23 mph    
Max Gust Speed 30 mph    
Visibility 10 miles    
Events      
T = Trace of Precipitation, MM = Missing Value Source: NWS Daily Summary

Daily Weather History Graph

Daily Weather History Graph

Search for Another Location

Airport:

Trip Planner

Search our weather history database for the weather conditions in past years. The results will help you decide how hot, cold, wet, or windy it might be!

Date:

Astronomy

Jan. 27, 2014 Rise Set
Actual Time 7:12 AM CST 5:43 PM CST
Civil Twilight 6:46 AM CST 6:09 PM CST
Nautical Twilight 6:17 AM CST 6:39 PM CST
Astronomical Twilight 5:47 AM CST 7:08 PM CST
Moon 3:52 AM CST (1/27) 2:33 PM CST (1/27)
Length of Visible Light 11h 23m
Length of Day
10h 31m
Waning Crescent, 14% of the Moon is Illuminated
Jan 27
Waning Crescent
Jan 30
New
Feb 6
First Quarter
Feb 14
Full
Feb 22
Last Quarter

Hourly Weather History & Observations

Time (CST) Temp. Windchill Dew Point Humidity Pressure Visibility Wind Dir Wind Speed Gust Speed Precip Events Conditions
12:56 AM 41.0 °F - 36.0 °F 82% 29.80 in 10.0 mi Calm Calm - N/A   Clear
1:56 AM 41.0 °F - 36.0 °F 82% 29.81 in 10.0 mi Calm Calm - N/A   Clear
2:56 AM 37.9 °F - 34.0 °F 86% 29.83 in 10.0 mi Calm Calm - N/A   Clear
3:56 AM 37.9 °F - 34.0 °F 86% 29.86 in 10.0 mi Calm Calm - N/A   Clear
4:56 AM 43.0 °F 38.2 °F 39.9 °F 89% 29.87 in 9.0 mi North 8.1 mph - N/A   Partly Cloudy
5:56 AM 42.1 °F 40.2 °F 37.9 °F 85% 29.93 in 10.0 mi North 3.5 mph - N/A   Clear
6:56 AM 44.1 °F 35.7 °F 34.0 °F 68% 30.00 in 10.0 mi NNE 20.7 mph 27.6 mph N/A   Clear
7:56 AM 44.1 °F 37.7 °F 30.9 °F 60% 30.06 in 10.0 mi NNE 12.7 mph - N/A   Clear
8:56 AM 46.0 °F 39.9 °F 28.0 °F 50% 30.10 in 10.0 mi NNE 13.8 mph 26.5 mph N/A   Partly Cloudy
9:56 AM 48.0 °F - 23.0 °F 37% 30.13 in 10.0 mi NNE 20.7 mph 26.5 mph N/A   Partly Cloudy
10:56 AM 50.0 °F - 21.9 °F 33% 30.14 in 10.0 mi NNE 13.8 mph 21.9 mph N/A   Partly Cloudy
11:56 AM 52.0 °F - 21.0 °F 30% 30.16 in 10.0 mi NNE 17.3 mph 24.2 mph N/A   Partly Cloudy
12:56 PM 52.0 °F - 18.0 °F 26% 30.14 in 10.0 mi NNE 20.7 mph 26.5 mph N/A   Scattered Clouds
1:56 PM 51.1 °F - 15.1 °F 24% 30.12 in 10.0 mi NNE 17.3 mph 24.2 mph N/A   Mostly Cloudy
2:56 PM 51.1 °F - 14.0 °F 23% 30.13 in 10.0 mi NE 17.3 mph 25.3 mph N/A   Mostly Cloudy
3:56 PM 48.9 °F - 9.0 °F 20% 30.15 in 10.0 mi NNE 16.1 mph - N/A   Mostly Cloudy
4:56 PM 46.0 °F 39.3 °F 7.0 °F 20% 30.16 in 10.0 mi NNE 16.1 mph - N/A   Mostly Cloudy
5:56 PM 43.0 °F 35.4 °F 5.0 °F 21% 30.18 in 10.0 mi NNE 16.1 mph 23.0 mph N/A   Mostly Cloudy
6:56 PM 41.0 °F 32.8 °F 3.0 °F 21% 30.21 in 10.0 mi NE 16.1 mph 21.9 mph N/A   Mostly Cloudy
7:56 PM 39.0 °F 29.9 °F 1.0 °F 20% 30.21 in 10.0 mi NE 17.3 mph 25.3 mph N/A   Overcast
8:56 PM 37.9 °F 28.5 °F -0.0 °F 20% 30.24 in 10.0 mi NNE 17.3 mph 23.0 mph N/A   Overcast
9:56 PM 36.0 °F 27.5 °F 1.0 °F 23% 30.25 in 10.0 mi ENE 12.7 mph - N/A   Overcast
10:56 PM 34.0 °F 26.0 °F 1.0 °F 25% 30.28 in 10.0 mi NE 10.4 mph - N/A   Overcast
11:56 PM 32.0 °F 21.6 °F -0.9 °F 24% 30.28 in 10.0 mi NE 15.0 mph - N/A   Overcast